�������C�����ː����j�^�v���󋵏��
Date,Time,Cs137(Bq/L),Cs134(Bq/L),�S��(Bq/L)
2021/02/19,00:00,-,-,19
2021/02/19,00:10,-,-,18
2021/02/19,00:20,-,-,20
2021/02/19,00:30,-,-,19
2021/02/19,00:40,-,-,17
2021/02/19,00:50,-,-,18
2021/02/19,01:00,-,-,16
2021/02/19,01:10,-,-,14
2021/02/19,01:20,-,-,14
2021/02/19,01:30,-,-,16
2021/02/19,01:40,-,-,15
2021/02/19,01:50,-,-,12
2021/02/19,02:00,-,-,14
2021/02/19,02:10,-,-,17
2021/02/19,02:20,-,-,16
2021/02/19,02:30,-,-,16
2021/02/19,02:40,-,-,17
2021/02/19,02:50,-,-,18
2021/02/19,03:00,-,-,16
2021/02/19,03:10,-,-,17
2021/02/19,03:20,-,-,19
2021/02/19,03:30,-,-,21
2021/02/19,03:40,-,-,20
2021/02/19,03:50,-,-,18
2021/02/19,04:00,-,-,21
2021/02/19,04:10,-,-,20
2021/02/19,04:20,-,-,20
2021/02/19,04:30,-,-,16
2021/02/19,04:40,-,-,15
2021/02/19,04:50,-,-,16
2021/02/19,05:00,-,-,14
2021/02/19,05:10,-,-,15
2021/02/19,05:20,-,-,12
2021/02/19,05:30,-,-,15
2021/02/19,05:40,-,-,15
2021/02/19,05:50,-,-,16
2021/02/19,06:00,-,-,17
2021/02/19,06:10,-,-,16
2021/02/19,06:20,-,-,17
2021/02/19,06:30,-,-,18
2021/02/19,06:40,-,-,19
2021/02/19,06:50,-,-,20
2021/02/19,07:00,-,-,20
2021/02/19,07:10,-,-,21
2021/02/19,07:20,-,-,21
2021/02/19,07:30,-,-,18
2021/02/19,07:40,-,-,18
2021/02/19,07:50,-,-,17
2021/02/19,08:00,-,-,15
2021/02/19,08:10,-,-,14
2021/02/19,08:20,-,-,12
2021/02/19,08:30,-,-,14
2021/02/19,08:40,-,-,12
2021/02/19,08:50,-,-,10
2021/02/19,09:00,-,-,11
2021/02/19,09:10,-,-,12
2021/02/19,09:20,-,-,11
2021/02/19,09:30,-,-,11
2021/02/19,09:40,-,-,12
2021/02/19,09:50,-,-,15
2021/02/19,10:00,-,-,16
2021/02/19,10:10,-,-,13
2021/02/19,10:20,-,-,15
2021/02/19,10:30,-,-,14
2021/02/19,10:40,-,-,16
2021/02/19,10:50,-,-,13
2021/02/19,11:00,-,-,14
2021/02/19,11:10,-,-,16
2021/02/19,11:20,-,-,16
2021/02/19,11:30,-,-,12
2021/02/19,11:40,-,-,13
2021/02/19,11:50,-,-,15
2021/02/19,12:00,-,-,12
2021/02/19,12:10,-,-,13
2021/02/19,12:20,-,-,14
2021/02/19,12:30,-,-,17
2021/02/19,12:40,-,-,17
2021/02/19,12:50,-,-,18
2021/02/19,13:00,-,-,19
2021/02/19,13:10,-,-,17
2021/02/19,13:20,-,-,15
2021/02/19,13:30,-,-,15
2021/02/19,13:40,-,-,14
2021/02/19,13:50,-,-,12
2021/02/19,14:00,-,-,14
2021/02/19,14:10,-,-,14
2021/02/19,14:20,-,-,15
2021/02/19,14:30,-,-,14
2021/02/19,14:40,-,-,15
2021/02/19,14:50,-,-,13
2021/02/19,15:00,-,-,14
2021/02/19,15:10,-,-,14
2021/02/19,15:20,-,-,15
2021/02/19,15:30,-,-,14
2021/02/19,15:40,-,-,14
2021/02/19,15:50,-,-,16
2021/02/19,16:00,-,-,16
2021/02/19,16:10,-,-,16
2021/02/19,16:20,-,-,16
2021/02/19,16:30,-,-,15
2021/02/19,16:40,-,-,16
2021/02/19,16:50,-,-,14
2021/02/19,17:00,-,-,12
2021/02/19,17:10,-,-,11
2021/02/19,17:20,-,-,12
2021/02/19,17:30,-,-,13
2021/02/19,17:40,-,-,12
2021/02/19,17:50,-,-,11
2021/02/19,18:00,-,-,13
2021/02/19,18:10,-,-,14
2021/02/19,18:20,-,-,13
2021/02/19,18:30,-,-,14
2021/02/19,18:40,-,-,15
2021/02/19,18:50,-,-,17
2021/02/19,19:00,-,-,15
2021/02/19,19:10,-,-,12
2021/02/19,19:20,-,-,16
2021/02/19,19:30,-,-,14
2021/02/19,19:40,-,-,14
2021/02/19,19:50,-,-,16
2021/02/19,20:00,-,-,18
2021/02/19,20:10,-,-,20
2021/02/19,20:20,-,-,17
2021/02/19,20:30,-,-,20
2021/02/19,20:40,-,-,20
2021/02/19,20:50,-,-,17
2021/02/19,21:00,-,-,17
2021/02/19,21:10,-,-,16
2021/02/19,21:20,-,-,14
2021/02/19,21:30,-,-,12
2021/02/19,21:40,-,-,11
2021/02/19,21:50,-,-,12
2021/02/19,22:00,-,-,9.0
2021/02/19,22:10,-,-,9.7
2021/02/19,22:20,-,-,10
2021/02/19,22:30,-,-,11
2021/02/19,22:40,-,-,12
2021/02/19,22:50,-,-,10
2021/02/19,23:00,-,-,13
2021/02/19,23:10,-,-,15
2021/02/19,23:20,-,-,14
2021/02/19,23:30,-,-,14
2021/02/19,23:40,-,-,15
2021/02/19,23:50,-,-,15
